Regional Weather Roundup
Issued by NWS

Home | Current Version | Previous Version | Graphics & Text | Print | Product List | Glossary On
Versions: 1 2 3 4 5 6 7 8 9 10 11 12 13 14 15 16 17 18 19 20 21 22 23 24 25 26 27 28 29 30 31 32 33 34 35 36 37 38 39 40 41 42 43 44 45 46 47 48 49 50
000
ASUS45 KTFX 041610
RWRMT
MONTANA REGIONAL WEATHER ROUNDUP
NATIONAL WEATHER SERVICE GREAT FALLS MT
1000 AM MDT SAT JUL 04 2015

NOTE: "FAIR" INDICATES FEW OR NO CLOUDS BELOW 12000 FEET WITH NO
SIGNIFICANT WEATHER AND/OR OBSTRUCTIONS TO VISIBILITY.

MTZ001>007-043-041700-
WEST OF THE DIVIDE

CITY           SKY/WX    TMP DP  RH WIND       PRES   REMARKS
KALISPELL      SUNNY     79  48  33 NE7       29.84F
MISSOULA       SUNNY     74  45  35 S5        29.92F
BUTTE          SUNNY     74  43  32 CALM      30.07S
MULLAN PASS    SUNNY     72  40  31 VRB3      30.06S
DEER LODGE       N/A     79  46  31 CALM      30.03F
EUREKA           N/A     79  46  31 CALM      29.84F
HAMILTON         N/A     77  46  33 S10       29.93S
LIBBY            N/A     77  46  33 CALM      29.84F
PLAINS           N/A     76  48  37 CALM      29.86F
RONAN            N/A     83  51  32 S5        29.92S
THOMPSON FALLS   N/A     78  47  33 NE1       29.89F
$$

MTZ008-052>055-041700-
SOUTHWEST MONTANA

CITY           SKY/WX    TMP DP  RH WIND       PRES   REMARKS
BOZEMAN        SUNNY     78  46  32 CALM      29.98S
DILLON         SUNNY     73  44  35 W5        30.03S
W YELLOWSTONE  SUNNY     66  45  45 CALM      30.14S
THREE FORKS      N/A     79  57  46 E3        29.97S
$$

MTZ009-010-012-014-046-048-049-054-041700-
EAST SLOPES AND CENTRAL MONTANA

CITY           SKY/WX    TMP DP  RH WIND       PRES   REMARKS
CUT BANK       SUNNY     67  51  56 N15G23    29.96R
GREAT FALLS    SUNNY     74  53  48 NW17G25   29.89R
MALMSTROM AFB  SUNNY     75  54  47 NW14G20   29.90R
HELENA         SUNNY     83  45  26 E3        29.91F
CONRAD           N/A     67  60  78 NW13      29.97S
$$

MTZ011-013-016-021-045-047-050-051-041700-
NORTH CENTRAL MONTANA

CITY           SKY/WX    TMP DP  RH WIND       PRES   REMARKS
HAVRE          SUNNY     80  56  43 VRB5      29.80R
LEWISTOWN      SUNNY     85  46  25 VRB6      29.89S
CHINOOK          N/A     81  55  41 NW9       29.78R
FORT BENTON      N/A     79  52  38 NW16      29.85R
$$

MTZ017>020-022>027-061-062-041700-
NORTHEAST MONTANA

CITY           SKY/WX    TMP DP  RH WIND       PRES   REMARKS
GLASGOW        SUNNY     82  55  39 W5        29.71S
JORDAN           N/A     90  55  30 SW15G22   29.74F
SIDNEY         SUNNY     79  61  53 S10       29.74F
WOLF POINT     SUNNY     82  61  48 CALM      29.71F HAZE
MALTA            N/A    N/A N/A N/A MISG      29.71
PLENTYWOOD       N/A     77  66  69 SE7       29.73F
POPLAR           N/A     82  64  54 SE3       29.72S
SCOBEY           N/A     78  62  57 S3        29.74S
$$

MTZ028>42-056>058-041700-
SOUTHCENTRAL AND SOUTHEAST MONTANA

CITY           SKY/WX    TMP DP  RH WIND       PRES   REMARKS
BAKER          SUNNY     81  63  54 SW6       29.82F
BILLINGS       MOSUNNY   80  55  42 SW9       29.87F
LIVINGSTON     SUNNY     84  44  24 W13       29.96S
MILES CITY     SUNNY     83  64  52 SE6       29.77F
EKALAKA          N/A     81  58  45 W2        29.85F
FORSYTH          N/A     84  61  45 W9        29.77S
LAUREL           N/A     83  51  32 S7        29.88S
ROUNDUP          N/A     80  53  39 S3        29.77F
$$

REGIONAL REPORTS...DAKOTAS

CITY           SKY/WX    TMP DP  RH WIND       PRES   REMARKS
WILLISTON      SUNNY     80  63  55 SE7       29.74F
MINOT          SUNNY     80  62  54 S10       29.76S HAZE
DICKINSON      SUNNY     78  65  63 S10       29.79S HAZE
BEACH          FAIR      82  64  54 S10       29.80S
CROSBY         FAIR      75  72  88 S7        29.74S
BISMARCK       SUNNY     78  68  71 SE8       29.81F
GRAND FORKS    CLOUDY    77  67  71 S10       29.83F HAZE
FARGO          SUNNY     79  67  66 SE9       29.86F HAZE
BUFFALO SD       N/A     79  64  60 S3        29.78F
RAPID CITY     SUNNY     79  66  64 S8        29.85S
$$

REGIONAL REPORTS...WYOMING/IDAHO/WASHINGTON

CITY           SKY/WX    TMP DP  RH WIND       PRES   REMARKS
GILLETTE       SUNNY     82  56  40 CALM      29.92S
SHERIDAN       SUNNY     83  58  42 SE3       29.89S
BUFFALO WY     SUNNY     84  52  33 NE8       29.97S
CODY           SUNNY     81  50  34 CALM      29.98S
YELLOWSTONE LA   N/A     62  50  64 E6        30.24R
IDAHO FALLS    SUNNY     72  55  55 NW3       30.00S
SALMON         SUNNY     70  46  43 CALM      29.98F
BOISE          MOSUNNY   82  44  26 W6        29.87S
SPOKANE        MOSUNNY   76  48  37 S9        29.84S
$$

REGIONAL REPORTS...ALBERTA

CITY           SKY/WX    TMP DP  RH WIND       PRES   REMARKS
EDMONTON       SUNNY     64  43  45 N8        29.93S
CALGARY        PTSUNNY   66  46  48 VRB6      29.97F
LETHBRIDGE     PTSUNNY   66  52  59 VRB5      29.96F
MEDICINE HAT   MOSUNNY   73  52  46 NE13G20   29.88S
WATERTON GATE    N/A     61  46  59 NW1         N/A
CARDSTON         N/A     63  52  67 NW1         N/A
MILK RIVER       N/A     66  50  55 N18         N/A
ONEFOUR          N/A     77  52  41 NE12G17     N/A
$$

REGIONAL REPORTS...SASKATCHEWAN

CITY           SKY/WX    TMP DP  RH WIND       PRES   REMARKS
SWIFT CURRENT  PTSUNNY   68  55  64 N26G33    29.84R
REGINA         LGT RAIN  72  63  73 N8        29.76S
SASKATOON      SMOKE     68  57  68 NW10G17   29.80R VSB 1
CYPRESS HILLS    N/A     63  52  67 NE13G23     N/A
$$



USA.gov is the U.S. government's official web portal to all federal, state and local government web resources and services.